Regional Weather Roundup
Issued by NWS Little Rock, AR

Home | Current Version | Previous Version | Text Only | Print | Product List | Glossary On
Versions: 1 2 3 4 5 6 7 8 9 10 11 12 13 14 15 16 17 18 19 20 21 22 23 24 25 26
000
ASUS44 KLZK 282005
RWRLZK

WEATHER ROUNDUP FOR ARKANSAS
NATIONAL WEATHER SERVICE LITTLE ROCK AR
300 PM CDT THU APR 28 2016

NOTE: "FAIR" INDICATES FEW OR NO CLOUDS BELOW 12,000 FEET WITH NO
SIGNIFICANT WEATHER AND/OR OBSTRUCTIONS TO VISIBILITY.

ARZ001-003-010-029-282100-
NORTHWEST ARKANSAS

CITY           SKY/WX    TMP DP  RH WIND       PRES   REMARKS
FAYETTEVILLE   SUNNY     75  45  34 W6        29.97S
FORT SMITH     SUNNY     78  43  28 NE7       29.93S
HARRISON       SUNNY     75  42  30 CALM      29.97R
BENTONVILLE    SUNNY     72  43  35 CALM      29.99S
ROGERS         SUNNY     72  45  37 VRB3      29.98S
SILOAM SPGS    SUNNY     72  46  40 CALM      29.98F
HIGHFILL       SUNNY     73  49  42 W5        29.97S
SPRINGDALE     SUNNY     72  45  37 W3        29.99S
$$

ARZ004-005-016-282100-
NORTH CENTRAL ARKANSAS

CITY           SKY/WX    TMP DP  RH WIND       PRES   REMARKS
BATESVILLE     SUNNY     81  46  30 W6        29.94S
FLIPPIN        SUNNY    N/A N/A N/A CALM      29.92S
MTN HOME       SUNNY     75  41  29 VRB7      29.95R
$$

ARZ040-041-282100-
WEST CENTRAL ARKANSAS

CITY           SKY/WX    TMP DP  RH WIND       PRES   REMARKS
MENA           SUNNY     82  52  34 E8        29.92F
MOUNT IDA      SUNNY     81  48  31 CALM      29.91F
$$

ARZ009-017-025-026-028-282100-
NORTHEAST ARKANSAS

CITY           SKY/WX    TMP DP  RH WIND       PRES   REMARKS
CORNING        LGT RAIN  77  48  36 W8G17     29.93S
JONESBORO      SUNNY     80  45  28 W7        29.93S
NEWPORT        SUNNY     82  43  25 SW3       29.95S
WALNUT RIDGE   SUNNY     79  46  31 SW10      29.93F
BLYTHEVILLE    SUNNY     82  47  29 SW9       29.93S
$$

ARZ022-023-033-042-044-282100-
CENTRAL ARKANSAS

CITY           SKY/WX    TMP DP  RH WIND       PRES   REMARKS
LITTLE ROCK    MOSUNNY   81  53  37 CALM      29.94S
N LITTLE ROCK    N/A     81  54  39 N3        29.92S
JACKSONVILLE   SUNNY     81  54  40 NE5       29.94S
SEARCY         SUNNY     81  55  41 VRB5      29.96R
HOT SPRINGS    SUNNY     82  48  30 VRB5      29.93S
RUSSELLVILLE   SUNNY     79  43  27 VRB3      29.94R
$$

ARZ036-282100-
EAST ARKANSAS

CITY           SKY/WX    TMP DP  RH WIND       PRES   REMARKS
WEST MEMPHIS   SUNNY     81  52  36 VRB3      29.93S
$$

ARZ050-053-066-070-073-282100-
SOUTHWEST ARKANSAS

CITY           SKY/WX    TMP DP  RH WIND       PRES   REMARKS
ARKADELPHIA    FAIR      83  60  45 VRB3      29.93S
CAMDEN         SUNNY     84  45  24 CALM      29.92S
TEXARKANA      SUNNY     82  54  37 VRB3      29.91S
EL DORADO      SUNNY     84  54  35 NE6       29.92F
DE QUEEN       SUNNY     82  57  42 SE8       29.88F
$$

ARZ056-057-069-282100-
SOUTHEAST ARKANSAS

CITY           SKY/WX    TMP DP  RH WIND       PRES   REMARKS
PINE BLUFF     SUNNY     81  51  35 N3        29.93F
STUTTGART      SUNNY     81  54  39 MISG      29.95S
MONTICELLO     SUNNY     85  53  33 NE6       29.92S

$$






USA.gov is the U.S. government's official web portal to all federal, state and local government web resources and services.